QPF
0.00 0.00 0.00 0.00 0.00 0.00 0.00 0.00 0.00 0.00 0.00 0.00 0.00 0.00 0.00 0.00 0.00 0.00 0.00 0.00 0.00 0.00 0.00 0.00 0.00 0.00 0.00 0.00 0.00 0.00 0.00 0.00 0.00 0.00 0.00 0.00 0.00 0.00 0.00 0.00 0.00 0.01 0.00 0.00 0.00
0.00 0.00 0.00 0.00 0.00 0.00 0.00 0.00 0.00 0.00 0.00 0.00 0.00 0.00 0.00 0.00 0.00 0.00 0.00 0.00 0.00 0.00 0.00 0.00 0.00 0.00 0.00 0.00 0.00 0.00 0.00 0.00 0.00 0.00 0.00 0.00 0.00 0.00 0.00 0.00 0.01 0.01 0.00 0.00 0.00
0.00 0.00 0.00 0.00 0.00 0.00 0.00 0.00 0.00 0.00 0.00 0.00 0.00 0.00 0.00 0.00 0.00 0.00 0.00 0.00 0.00 0.00 0.00 0.00 0.00 0.00 0.00 0.00 0.00 0.00 0.00 0.00 0.00 0.00 0.00 0.00 0.00 0.00 0.00 0.00 0.00 0.01 0.01 0.00 0.00
0.00 0.00 0.00 0.00 0.00 0.00 0.00 0.00 0.00 0.00 0.00 0.00 0.00 0.00 0.00 0.00 0.00 0.00 0.00 0.00 0.00 0.00 0.00 0.00 0.00 0.00 0.00 0.00 0.00 0.00 0.00 0.00 0.00 0.00 0.00 0.00 0.00 0.00 0.00 0.00 0.00 0.01 0.01 0.00 0.00
0.00 0.00 0.00 0.00 0.00 0.00 0.00 0.00 0.00 0.00 0.00 0.00 0.00 0.00 0.00 0.00 0.00 0.00 0.00 0.00 0.00 0.00 0.00 0.00 0.00 0.00 0.00 0.00 0.00 0.00 0.00 0.00 0.00 0.00 0.00 0.00 0.00 0.00 0.00 0.00 0.00 0.00 0.00 0.01 0.00
0.00 0.00 0.00 0.00 0.00 0.00 0.00 0.00 0.00 0.00 0.00 0.00 0.00 0.00 0.00 0.00 0.00 0.00 0.00 0.00 0.00 0.00 0.00 0.00 0.00 0.00 0.00 0.00 0.00 0.00 0.00 0.00 0.00 0.00 0.00 0.00 0.00 0.00 0.00 0.00 0.00 0.00 0.00 0.00 0.00
0.00 0.00 0.00 0.00 0.00 0.00 0.00 0.00 0.00 0.00 0.00 0.00 0.00 0.00 0.00 0.00 0.00 0.00 0.00 0.00 0.00 0.00 0.00 0.00 0.00 0.00 0.00 0.00 0.00 0.00 0.00 0.00 0.00 0.00 0.00 0.00 0.00 0.00 0.00 0.00 0.00 0.00 0.00 0.02 0.02
0.00 0.00 0.00 0.00 0.00 0.00 0.00 0.00 0.00 0.00 0.00 0.00 0.00 0.00 0.00 0.00 0.00 0.00 0.00 0.00 0.00 0.00 0.00 0.00 0.00 0.00 0.00 0.00 0.00 0.00 0.00 0.00 0.00 0.00 0.00 0.00 0.00 0.00 0.00 0.00 0.00 0.00 0.00 0.01 0.03
0.00 0.00 0.00 0.00 0.00 0.00 0.00 0.00 0.00 0.00 0.00 0.00 0.00 0.00 0.00 0.00 0.00 0.00 0.00 0.00 0.00 0.00 0.00 0.00 0.00 0.00 0.00 0.00 0.00 0.00 0.00 0.00 0.00 0.00 0.00 0.00 0.00 0.00 0.00 0.00 0.00 0.00 0.00 0.00 0.07
0.00 0.00 0.00 0.00 0.00 0.00 0.00 0.00 0.00 0.00 0.00 0.00 0.00 0.00 0.00 0.00 0.00 0.00 0.00 0.00 0.00 0.00 0.00 0.00 0.00 0.00 0.00 0.00 0.00 0.00 0.00 0.00 0.00 0.00 0.00 0.00 0.00 0.00 0.00 0.00 0.00 0.00 0.00 0.00 0.01
0.00 0.00 0.00 0.00 0.00 0.00 0.00 0.00 0.00 0.00 0.00 0.00 0.00 0.00 0.00 0.00 0.00 0.00 0.00 0.00 0.00 0.00 0.00 0.00 0.00 0.00 0.00 0.00 0.00 0.00 0.00 0.00 0.00 0.00 0.00 0.00 0.00 0.00 0.00 0.00 0.00 0.00 0.00 0.00 0.00
0.00 0.00 0.00 0.00 0.00 0.00 0.00 0.00 0.00 0.00 0.00 0.00 0.00 0.00 0.00 0.00 0.00 0.00 0.00 0.00 0.00 0.00 0.00 0.00 0.00 0.00 0.00 0.00 0.00 0.00 0.00 0.00 0.00 0.00 0.00 0.00 0.00 0.00 0.00 0.00 0.00 0.00 0.00 0.00 0.00
0.00 0.00 0.00 0.00 0.00 0.00 0.00 0.00 0.00 0.00 0.00 0.00 0.00 0.00 0.00 0.00 0.00 0.00 0.00 0.00 0.00 0.00 0.00 0.00 0.00 0.00 0.00 0.00 0.00 0.00 0.00 0.00 0.00 0.00 0.00 0.00 0.00 0.00 0.00 0.00 0.00 0.00 0.00 0.00 0.00
0.00 0.00 0.00 0.00 0.00 0.00 0.00 0.00 0.00 0.00 0.00 0.00 0.00 0.00 0.00 0.00 0.00 0.00 0.00 0.00 0.00 0.00 0.00 0.00 0.00 0.00 0.00 0.00 0.00 0.00 0.00 0.00 0.00 0.00 0.00 0.00 0.00 0.00 0.00 0.00 0.00 0.00 0.00 0.00 0.00
0.00 0.00 0.00 0.00 0.00 0.00 0.00 0.00 0.00 0.00 0.00 0.00 0.00 0.00 0.00 0.00 0.00 0.00 0.00 0.00 0.00 0.00 0.00 0.00 0.00 0.00 0.00 0.00 0.00 0.00 0.00 0.00 0.00 0.00 0.00 0.00 0.00 0.00 0.00 0.00 0.00 0.00 0.00 0.00 0.00
0.00 0.00 0.00 0.00 0.00 0.00 0.00 0.00 0.00 0.00 0.00 0.00 0.00 0.00 0.00 0.00 0.00 0.00 0.00 0.00 0.00 0.00 0.00 0.00 0.00 0.00 0.00 0.00 0.00 0.00 0.00 0.00 0.00 0.00 0.00 0.00 0.00 0.00 0.06 0.03 0.00 0.00 0.00 0.00 0.00
0.00 0.00 0.00 0.00 0.00 0.00 0.00 0.00 0.00 0.00 0.00 0.00 0.00 0.00 0.00 0.00 0.00 0.00 0.00 0.00 0.00 0.00 0.00 0.00 0.00 0.00 0.00 0.00 0.00 0.00 0.00 0.00 0.00 0.00 0.00 0.00 0.00 0.00 0.06 0.06 0.01 0.00 0.00 0.00 0.00
0.00 0.00 0.00 0.00 0.00 0.00 0.00 0.00 0.00 0.00 0.00 0.00 0.00 0.00 0.00 0.00 0.00 0.00 0.00 0.00 0.00 0.00 0.00 0.00 0.00 0.00 0.00 0.00 0.00 0.00 0.00 0.00 0.00 0.00 0.00 0.00 0.00 0.02 0.04 0.02 0.02 0.03 0.02 0.01 0.01
0.00 0.00 0.00 0.00 0.00 0.00 0.00 0.00 0.00 0.00 0.00 0.00 0.00 0.00 0.00 0.00 0.00 0.00 0.00 0.00 0.00 0.00 0.00 0.00 0.00 0.00 0.00 0.00 0.00 0.00 0.00 0.00 0.00 0.00 0.00 0.00 0.00 0.00 0.00 0.00 0.02 0.05 0.04 0.04 0.07
0.00 0.00 0.00 0.00 0.00 0.00 0.00 0.00 0.00 0.00 0.00 0.00 0.00 0.00 0.00 0.00 0.00 0.00 0.00 0.00 0.00 0.00 0.00 0.00 0.00 0.00 0.00 0.00 0.00 0.00 0.00 0.00 0.00 0.00 0.00 0.00 0.00 0.00 0.00 0.00 0.01 0.03 0.03 0.04 0.05
0.00 0.00 0.00 0.00 0.00 0.00 0.00 0.00 0.00 0.00 0.00 0.00 0.00 0.00 0.00 0.00 0.00 0.00 0.00 0.00 0.00 0.00 0.00 0.00 0.00 0.00 0.00 0.00 0.00 0.00 0.00 0.00 0.00 0.00 0.00 0.00 0.00 0.00 0.00 0.00 0.00 0.00 0.00 0.03 0.04
0.00 0.00 0.00 0.00 0.00 0.00 0.00 0.00 0.00 0.00 0.00 0.00 0.00 0.00 0.00 0.00 0.00 0.00 0.00 0.00 0.00 0.00 0.00 0.00 0.00 0.00 0.00 0.00 0.00 0.00 0.00 0.00 0.00 0.00 0.00 0.00 0.00 0.00 0.00 0.00 0.00 0.00 0.00 0.00 0.00
0.00 0.00 0.00 0.00 0.00 0.00 0.00 0.00 0.00 0.00 0.00 0.00 0.00 0.00 0.00 0.00 0.00 0.00 0.00 0.00 0.00 0.00 0.00 0.00 0.00 0.00 0.00 0.00 0.00 0.00 0.00 0.00 0.00 0.00 0.00 0.00 0.00 0.00 0.00 0.00 0.00 0.00 0.00 0.00 0.00
0.00 0.00 0.00 0.00 0.00 0.00 0.00 0.00 0.00 0.00 0.00 0.00 0.00 0.00 0.00 0.00 0.00 0.00 0.00 0.00 0.00 0.00 0.00 0.00 0.00 0.00 0.00 0.00 0.00 0.00 0.00 0.00 0.00 0.00 0.00 0.00 0.00 0.00 0.00 0.00 0.00 0.00 0.00 0.00 0.00
0.00 0.00 0.00 0.00 0.00 0.00 0.00 0.00 0.00 0.00 0.00 0.00 0.00 0.00 0.00 0.00 0.00 0.00 0.00 0.00 0.00 0.00 0.00 0.00 0.00 0.00 0.00 0.00 0.00 0.00 0.00 0.00 0.00 0.00 0.00 0.00 0.00 0.00 0.00 0.00 0.00 0.00 0.00 0.00 0.00
0.00 0.00 0.00 0.00 0.00 0.00 0.00 0.00 0.00 0.00 0.00 0.00 0.00 0.00 0.00 0.00 0.00 0.00 0.00 0.00 0.00 0.00 0.00 0.00 0.00 0.00 0.00 0.00 0.00 0.00 0.00 0.00 0.00 0.00 0.00 0.00 0.00 0.00 0.00 0.00 0.00 0.00 0.00 0.00 0.00
0.00 0.00 0.00 0.00 0.00 0.00 0.00 0.00 0.00 0.00 0.00 0.00 0.00 0.00 0.00 0.00 0.00 0.00 0.00 0.00 0.00 0.00 0.00 0.00 0.00 0.00 0.00 0.00 0.00 0.00 0.00 0.00 0.00 0.00 0.00 0.00 0.00 0.00 0.00 0.00 0.00 0.00 0.00 0.00 0.00
MSLP
1019.19 1018.92 1018.68 1018.23 1018.11 1018.00 1017.60 1017.39 1017.15 1016.67 1016.44 1015.91 1015.48 1015.29 1014.92 1014.53 1013.83 1013.62 1013.39 1013.08 1012.88 1012.42 1012.15 1011.86 1011.46 1011.62 1011.83 1012.15 1012.21 1012.29 1012.97 1012.92 1012.32 1011.41 1010.67 1009.89 1009.72 1009.52 1009.54 1009.61 1009.44 1009.15 1009.07 1009.07 1009.91
1019.11 1019.02 1018.69 1018.08 1018.22 1017.87 1017.62 1017.37 1017.10 1016.43 1016.12 1015.87 1015.61 1015.38 1015.05 1014.78 1014.43 1013.48 1012.84 1012.67 1012.55 1012.29 1012.26 1012.36 1012.20 1012.17 1012.37 1012.43 1012.38 1012.57 1012.75 1012.41 1011.98 1011.38 1010.81 1010.21 1009.94 1009.85 1009.82 1009.73 1009.49 1009.46 1009.05 1009.56 1009.69
1019.23 1019.00 1018.53 1018.10 1018.41 1017.86 1017.41 1017.24 1016.74 1016.41 1016.25 1015.95 1015.52 1015.18 1014.93 1014.86 1014.31 1013.25 1012.58 1012.50 1012.40 1012.25 1012.36 1012.50 1012.55 1012.55 1012.66 1012.61 1012.57 1012.68 1012.64 1012.23 1011.69 1011.19 1010.76 1010.39 1009.92 1009.79 1009.71 1009.74 1009.15 1008.86 1009.40 1009.66 1009.81
1019.29 1018.85 1018.56 1018.18 1018.05 1017.63 1017.31 1017.05 1016.67 1016.35 1016.03 1015.64 1015.35 1015.05 1014.85 1014.91 1014.27 1012.78 1012.49 1012.42 1012.34 1012.26 1012.26 1012.39 1012.57 1012.91 1013.16 1013.16 1012.96 1013.07 1012.57 1012.27 1011.79 1011.15 1011.00 1010.48 1009.80 1009.51 1009.42 1009.07 1008.22 1008.30 1008.82 1009.23 1009.87
1019.15 1018.71 1018.29 1018.08 1017.78 1017.38 1017.04 1016.80 1016.53 1016.11 1015.78 1015.55 1015.30 1014.99 1014.86 1014.37 1013.29 1012.35 1012.45 1012.49 1012.47 1012.40 1012.61 1012.78 1013.02 1013.19 1013.39 1013.40 1013.25 1013.06 1012.62 1012.27 1011.76 1011.34 1010.83 1010.31 1009.70 1009.44 1009.01 1008.63 1008.03 1008.12 1008.47 1008.99 1009.56
1018.87 1018.51 1018.28 1017.99 1017.58 1017.15 1016.84 1016.58 1016.19 1015.77 1015.67 1015.50 1015.19 1014.88 1014.55 1013.70 1012.47 1012.39 1012.52 1012.65 1012.56 1012.58 1012.66 1012.75 1012.97 1013.11 1013.38 1013.44 1013.55 1012.90 1012.73 1012.32 1011.74 1011.15 1010.69 1010.16 1009.72 1009.35 1008.55 1008.21 1008.43 1008.37 1008.44 1008.59 1009.02
1018.80 1018.51 1018.21 1017.80 1017.36 1016.92 1016.51 1016.09 1015.71 1015.38 1015.41 1015.32 1015.05 1014.81 1014.24 1013.20 1012.48 1012.52 1012.65 1012.56 1012.46 1012.54 1012.62 1012.56 1012.75 1013.13 1013.40 1013.50 1013.34 1013.11 1013.18 1012.49 1011.84 1011.18 1010.65 1010.26 1009.95 1009.27 1008.67 1008.25 1008.14 1008.40 1008.49 1008.76 1009.03
1018.91 1018.48 1017.96 1017.48 1017.04 1016.52 1015.96 1015.45 1015.09 1014.92 1015.07 1015.15 1015.04 1014.87 1013.84 1012.51 1012.48 1012.50 1012.43 1012.37 1012.31 1012.32 1012.42 1012.45 1012.75 1013.14 1013.43 1013.54 1013.37 1013.55 1013.60 1013.37 1012.15 1011.33 1010.44 1010.51 1010.44 1009.52 1008.87 1008.90 1008.85 1008.76 1009.15 1008.93 1008.92
1018.84 1018.45 1017.99 1017.39 1016.63 1015.94 1015.54 1015.02 1014.67 1014.61 1014.97 1015.04 1015.13 1014.83 1013.56 1012.45 1012.47 1012.21 1012.18 1012.31 1012.27 1012.30 1012.46 1012.63 1012.88 1013.46 1013.69 1014.06 1014.27 1014.20 1014.21 1013.71 1012.67 1011.39 1010.99 1010.92 1010.59 1009.82 1009.04 1009.12 1009.10 1008.80 1008.78 1008.72 1008.80
1018.93 1018.45 1017.89 1017.22 1016.45 1015.70 1015.18 1014.84 1014.80 1014.81 1015.16 1015.11 1015.10 1015.10 1013.46 1013.02 1012.62 1012.30 1012.10 1012.30 1012.44 1012.51 1012.74 1013.04 1013.70 1014.04 1014.33 1014.63 1014.80 1014.54 1014.33 1013.72 1012.88 1011.79 1011.25 1011.11 1010.85 1010.21 1009.47 1009.22 1009.11 1009.10 1008.53 1008.56 1008.39
1018.84 1018.33 1017.84 1017.22 1016.36 1015.41 1015.08 1015.08 1015.61 1015.54 1015.47 1015.71 1015.47 1014.89 1013.88 1013.08 1012.63 1012.33 1012.13 1012.37 1012.63 1013.14 1013.59 1013.85 1014.62 1014.63 1014.38 1014.31 1014.22 1014.27 1014.09 1013.59 1012.48 1011.71 1011.49 1011.11 1010.76 1010.47 1009.66 1009.15 1008.92 1008.83 1008.79 1008.40 1008.14
1018.70 1018.30 1017.70 1017.21 1016.51 1015.63 1015.40 1016.56 1017.39 1017.60 1016.59 1015.46 1015.06 1014.61 1013.83 1013.45 1013.14 1012.37 1012.27 1012.74 1013.10 1013.73 1013.99 1014.52 1014.50 1013.91 1013.82 1013.71 1013.94 1013.91 1013.71 1012.99 1012.09 1011.48 1011.60 1011.10 1010.58 1010.18 1009.74 1009.09 1008.63 1008.57 1008.49 1008.15 1007.72
1018.65 1018.24 1017.56 1016.91 1016.51 1016.42 1016.89 1017.41 1017.41 1017.42 1017.10 1015.45 1014.41 1013.92 1013.40 1013.45 1013.18 1012.76 1012.65 1012.91 1013.44 1013.98 1014.24 1014.70 1014.11 1013.59 1013.57 1013.51 1013.48 1013.33 1013.25 1012.75 1012.44 1011.63 1011.50 1011.24 1010.74 1009.87 1009.59 1009.04 1008.64 1008.51 1008.34 1008.04 1007.48
1018.66 1018.15 1017.49 1016.78 1016.74 1017.36 1017.49 1017.50 1017.47 1017.42 1017.09 1015.48 1014.09 1013.22 1013.10 1013.16 1013.24 1012.76 1012.81 1013.24 1013.65 1014.18 1014.22 1014.47 1013.79 1013.65 1013.40 1013.19 1013.04 1012.78 1012.35 1012.54 1012.47 1012.49 1012.30 1012.80 1011.90 1011.14 1009.80 1009.41 1009.51 1009.14 1009.07 1008.02 1007.30
1018.60 1018.22 1017.76 1017.20 1017.42 1017.47 1017.74 1017.46 1017.42 1017.56 1017.02 1015.23 1013.76 1012.86 1013.05 1013.51 1013.30 1013.20 1013.07 1013.19 1013.96 1014.35 1014.84 1014.56 1014.04 1013.59 1013.25 1012.72 1012.84 1012.67 1012.38 1012.69 1012.95 1013.14 1013.56 1013.63 1013.59 1011.69 1011.01 1010.55 1010.23 1009.58 1009.16 1008.03 1007.07
1018.54 1018.21 1017.96 1017.57 1017.74 1017.39 1017.37 1017.36 1017.67 1017.51 1016.85 1015.30 1014.32 1014.14 1013.96 1013.76 1013.74 1013.75 1013.74 1013.74 1014.08 1014.65 1014.83 1014.73 1013.98 1013.68 1013.20 1012.63 1012.52 1012.60 1012.72 1013.26 1013.66 1014.27 1014.72 1014.68 1014.59 1012.90 1012.44 1011.87 1010.70 1010.06 1009.36 1007.94 1006.82
1018.37 1018.01 1017.84 1017.54 1017.46 1017.17 1017.31 1017.62 1017.91 1017.50 1016.99 1016.22 1015.58 1015.42 1015.42 1015.13 1014.75 1014.84 1015.31 1015.41 1015.83 1015.90 1016.24 1015.51 1014.43 1013.70 1013.34 1013.20 1012.67 1013.06 1013.82 1014.92 1015.39 1015.48 1015.59 1015.19 1014.59 1013.60 1012.34 1011.79 1011.18 1010.47 1009.39 1008.43 1007.53
1018.11 1017.78 1017.47 1017.15 1017.10 1017.11 1017.41 1017.58 1017.82 1017.80 1017.15 1016.61 1016.29 1016.13 1016.24 1016.19 1015.92 1015.93 1016.15 1016.54 1016.52 1016.93 1017.34 1017.19 1015.51 1014.40 1013.67 1013.81 1013.83 1014.29 1015.21 1016.57 1017.47 1017.56 1016.49 1015.23 1014.41 1013.25 1011.99 1011.57 1011.05 1010.61 1010.04 1009.32 1008.58
1017.95 1017.75 1017.52 1016.96 1016.91 1017.27 1017.57 1017.92 1017.91 1017.63 1017.29 1017.13 1016.90 1016.92 1016.95 1016.85 1016.96 1016.59 1016.79 1016.93 1016.87 1016.96 1017.64 1017.57 1016.35 1014.69 1014.24 1013.84 1014.02 1014.45 1015.84 1016.86 1017.33 1017.56 1017.10 1014.94 1013.45 1012.84 1011.74 1011.60 1011.37 1011.25 1010.89 1010.53 1010.03
1018.70 1018.27 1017.54 1016.77 1016.89 1017.27 1017.77 1017.97 1017.62 1017.12 1017.06 1017.20 1017.59 1017.62 1017.76 1017.64 1017.46 1017.27 1017.16 1017.15 1017.02 1017.00 1017.38 1017.86 1017.51 1015.44 1014.49 1013.94 1014.31 1014.76 1016.00 1016.71 1017.25 1017.49 1016.85 1015.03 1014.27 1013.45 1012.18 1012.26 1011.97 1012.12 1012.24 1011.96 1011.63
1018.87 1018.27 1017.22 1016.94 1016.94 1017.39 1017.94 1017.66 1017.08 1016.68 1016.83 1017.18 1017.49 1017.85 1017.97 1018.03 1017.86 1017.64 1017.38 1017.54 1017.23 1017.22 1017.40 1017.72 1018.26 1016.39 1015.51 1014.99 1015.15 1015.44 1015.63 1016.26 1017.09 1017.47 1017.33 1016.48 1014.60 1013.84 1013.69 1013.18 1013.05 1013.17 1013.13 1012.96 1012.75
1018.92 1018.72 1017.32 1017.07 1017.68 1018.06 1017.98 1017.23 1016.59 1016.58 1016.64 1016.94 1017.27 1017.66 1017.88 1018.02 1018.02 1017.84 1017.58 1017.34 1017.43 1017.56 1017.67 1017.79 1018.34 1018.11 1016.48 1015.29 1015.30 1015.50 1015.55 1015.81 1016.58 1017.36 1016.97 1016.53 1014.89 1014.01 1014.11 1013.76 1013.84 1013.81 1013.95 1013.82 1013.63
1018.79 1018.40 1017.51 1017.29 1017.89 1018.15 1017.62 1017.06 1016.69 1016.63 1016.72 1016.94 1017.32 1017.61 1017.83 1018.13 1018.40 1018.09 1017.70 1017.41 1017.54 1017.66 1017.69 1017.95 1018.63 1018.64 1016.91 1016.18 1015.57 1015.76 1015.66 1015.84 1015.94 1016.37 1016.63 1016.47 1014.78 1014.12 1014.19 1014.26 1014.38 1014.39 1014.37 1014.27 1014.31
1018.79 1018.66 1018.25 1018.04 1017.90 1017.61 1017.63 1017.14 1016.83 1016.52 1016.61 1016.85 1017.25 1017.64 1018.04 1018.27 1018.31 1018.22 1018.03 1017.68 1017.75 1017.89 1017.98 1018.27 1019.00 1019.30 1018.90 1017.74 1017.30 1016.62 1015.90 1015.54 1015.69 1016.01 1015.80 1015.73 1015.07 1014.09 1014.42 1014.80 1014.94 1015.09 1015.00 1015.03 1015.45
1018.29 1017.87 1017.13 1018.04 1017.88 1017.49 1017.27 1017.00 1016.79 1016.76 1016.79 1016.96 1017.61 1017.75 1018.17 1018.61 1018.71 1018.57 1018.36 1018.35 1018.19 1018.34 1018.48 1019.11 1019.56 1019.40 1018.73 1017.74 1017.33 1016.60 1015.84 1015.25 1015.16 1014.98 1015.17 1015.06 1015.04 1014.81 1014.52 1014.76 1015.07 1015.49 1015.60 1015.85 1016.27
1017.71 1017.54 1017.17 1017.00 1016.98 1017.19 1017.19 1016.95 1016.69 1016.66 1016.80 1017.17 1017.53 1017.91 1018.21 1018.59 1018.61 1018.74 1018.72 1019.02 1018.89 1018.99 1019.36 1019.84 1019.93 1019.76 1018.75 1017.33 1016.87 1016.19 1015.03 1014.68 1014.62 1014.49 1014.58 1014.71 1014.86 1014.83 1014.74 1014.69 1015.06 1015.33 1015.68 1016.11 1016.43
1016.50 1016.22 1016.12 1016.41 1016.74 1016.99 1016.36 1016.04 1015.98 1016.29 1016.65 1016.67 1017.19 1017.89 1018.26 1017.89 1018.06 1018.03 1018.22 1018.51 1018.73 1019.28 1020.01 1020.41 1020.53 1020.51 1019.40 1017.88 1016.66 1015.74 1014.24 1013.98 1014.02 1014.15 1014.41 1014.55 1014.61 1014.89 1015.19 1015.19 1015.16 1015.43 1015.84 1016.19 1016.64
Thickness
5701 5702 5702 5706 5706 5705 5706 5705 5704 5707 5706 5708 5709 5707 5707 5707 5711 5707 5699 5699 5697 5696 5694 5693 5694 5689 5686 5678 5680 5679 5653 5649 5665 5677 5688 5706 5701 5712 5715 5712 5719 5729 5734 5741 5743
5701 5700 5701 5706 5702 5704 5704 5702 5703 5707 5706 5705 5704 5703 5703 5701 5700 5699 5702 5698 5693 5690 5685 5677 5674 5675 5665 5667 5666 5659 5645 5654 5669 5676 5677 5689 5695 5697 5699 5700 5708 5715 5731 5732 5738
5698 5698 5701 5704 5697 5702 5702 5701 5703 5705 5702 5701 5701 5701 5700 5697 5695 5693 5699 5694 5688 5685 5681 5675 5670 5667 5659 5660 5658 5654 5643 5659 5665 5669 5674 5678 5684 5694 5689 5688 5703 5711 5717 5722 5729
5696 5698 5699 5700 5699 5701 5700 5700 5701 5701 5700 5701 5700 5699 5697 5692 5669 5696 5695 5689 5684 5680 5677 5670 5663 5653 5646 5642 5648 5638 5649 5652 5655 5664 5664 5668 5682 5685 5687 5698 5714 5719 5718 5722 5720
5696 5698 5699 5699 5699 5700 5700 5699 5699 5699 5699 5699 5697 5697 5694 5689 5687 5698 5691 5684 5678 5674 5664 5659 5651 5647 5638 5638 5639 5635 5644 5646 5651 5652 5656 5663 5669 5676 5685 5698 5710 5714 5716 5715 5718
5696 5698 5697 5697 5699 5700 5701 5699 5700 5700 5697 5695 5694 5694 5693 5677 5699 5693 5686 5680 5674 5667 5661 5658 5651 5649 5639 5635 5632 5640 5637 5637 5642 5647 5653 5657 5660 5668 5686 5692 5694 5701 5705 5710 5711
5695 5695 5696 5698 5700 5701 5701 5701 5702 5700 5697 5694 5693 5692 5688 5683 5695 5690 5684 5677 5672 5665 5656 5657 5653 5644 5638 5629 5637 5634 5626 5629 5637 5643 5643 5653 5646 5657 5674 5685 5687 5690 5696 5701 5703
5692 5694 5697 5699 5701 5702 5703 5705 5705 5702 5698 5693 5691 5689 5681 5699 5695 5688 5683 5675 5671 5665 5660 5657 5651 5640 5633 5631 5627 5620 5617 5605 5628 5635 5645 5643 5625 5653 5666 5669 5673 5679 5679 5690 5696
5691 5693 5695 5698 5702 5705 5706 5708 5707 5703 5696 5692 5688 5684 5679 5698 5687 5689 5683 5669 5666 5664 5659 5654 5645 5630 5624 5612 5601 5604 5596 5600 5612 5631 5630 5631 5624 5645 5656 5659 5664 5669 5671 5684 5691
5689 5691 5694 5698 5702 5706 5707 5707 5703 5699 5692 5689 5685 5675 5684 5677 5684 5685 5683 5673 5661 5655 5648 5639 5624 5612 5606 5598 5587 5593 5591 5597 5598 5617 5621 5615 5615 5631 5642 5647 5652 5657 5666 5670 5683
5689 5691 5693 5696 5700 5706 5706 5703 5690 5688 5685 5676 5673 5671 5676 5684 5686 5679 5680 5667 5658 5646 5629 5628 5610 5603 5608 5607 5606 5600 5596 5591 5602 5610 5607 5606 5609 5615 5628 5637 5641 5647 5652 5660 5670
5688 5690 5692 5695 5698 5702 5700 5684 5675 5672 5667 5677 5674 5672 5677 5677 5664 5673 5676 5656 5646 5630 5631 5614 5606 5621 5618 5615 5606 5599 5592 5594 5603 5607 5602 5600 5603 5607 5615 5627 5637 5642 5646 5654 5667
5686 5689 5692 5695 5696 5694 5686 5678 5675 5672 5661 5672 5679 5676 5676 5675 5664 5663 5668 5657 5642 5630 5626 5611 5618 5626 5621 5612 5606 5599 5591 5593 5594 5606 5602 5591 5589 5602 5606 5614 5625 5631 5640 5650 5661
5683 5687 5691 5695 5691 5685 5680 5678 5675 5671 5652 5666 5673 5678 5679 5674 5660 5673 5668 5655 5640 5628 5625 5615 5624 5620 5614 5611 5611 5595 5610 5604 5598 5589 5579 5575 5568 5581 5590 5591 5597 5610 5623 5642 5656
5680 5683 5686 5689 5684 5681 5679 5678 5673 5665 5629 5671 5671 5687 5676 5665 5667 5663 5668 5657 5635 5628 5625 5614 5619 5617 5614 5617 5616 5604 5610 5599 5590 5576 5564 5560 5549 5552 5562 5566 5580 5599 5613 5636 5655
5676 5679 5681 5683 5680 5680 5679 5675 5669 5652 5634 5657 5666 5656 5654 5659 5660 5661 5652 5654 5647 5628 5623 5619 5627 5624 5619 5618 5617 5617 5606 5591 5581 5565 5549 5545 5540 5542 5548 5556 5573 5590 5606 5632 5652
5673 5676 5677 5679 5678 5679 5676 5668 5650 5633 5657 5650 5647 5648 5641 5642 5645 5643 5631 5622 5615 5607 5600 5605 5617 5620 5625 5609 5617 5608 5591 5570 5549 5544 5556 5544 5542 5539 5551 5557 5570 5583 5605 5627 5644
5670 5674 5676 5677 5678 5677 5670 5659 5638 5645 5642 5651 5645 5640 5639 5634 5635 5629 5625 5612 5617 5610 5590 5583 5585 5613 5619 5609 5600 5594 5582 5565 5543 5544 5547 5554 5546 5553 5567 5570 5579 5587 5603 5620 5636
5665 5669 5671 5674 5674 5671 5661 5638 5636 5640 5647 5639 5637 5629 5625 5627 5626 5624 5618 5613 5615 5613 5597 5582 5588 5612 5614 5615 5608 5599 5574 5570 5557 5551 5540 5559 5573 5564 5577 5576 5581 5585 5593 5605 5617
5651 5656 5664 5670 5669 5664 5651 5643 5644 5650 5648 5641 5625 5628 5618 5617 5616 5612 5613 5617 5614 5615 5605 5597 5577 5609 5613 5620 5608 5601 5581 5576 5560 5559 5556 5562 5565 5562 5573 5573 5579 5584 5584 5592 5601
5643 5650 5660 5663 5663 5652 5641 5639 5647 5653 5648 5637 5629 5622 5619 5615 5613 5611 5614 5612 5613 5611 5606 5599 5583 5594 5605 5607 5598 5590 5583 5579 5568 5562 5555 5547 5568 5577 5568 5572 5572 5574 5578 5587 5593
5632 5637 5652 5655 5642 5627 5634 5640 5653 5647 5647 5640 5634 5625 5619 5615 5609 5609 5609 5612 5609 5608 5600 5601 5580 5573 5595 5606 5602 5595 5595 5585 5568 5557 5565 5561 5565 5580 5573 5576 5575 5570 5575 5580 5588
5626 5629 5642 5645 5631 5628 5637 5644 5644 5641 5639 5635 5629 5627 5621 5613 5603 5604 5608 5612 5605 5605 5602 5599 5581 5569 5587 5598 5601 5593 5593 5589 5582 5569 5565 5552 5575 5589 5581 5578 5577 5577 5579 5584 5586
5615 5620 5628 5627 5626 5632 5631 5635 5635 5641 5637 5633 5628 5623 5616 5609 5607 5602 5603 5608 5601 5602 5604 5596 5579 5577 5568 5582 5586 5582 5589 5590 5586 5570 5573 5570 5581 5591 5587 5582 5580 5578 5580 5582 5579
5604 5619 5631 5617 5623 5625 5628 5632 5630 5629 5631 5627 5619 5619 5611 5602 5600 5596 5600 5595 5599 5597 5595 5585 5577 5576 5579 5586 5584 5584 5587 5589 5596 5594 5588 5588 5588 5588 5588 5589 5585 5580 5579 5579 5576
5598 5609 5616 5622 5622 5620 5619 5623 5624 5627 5622 5620 5616 5611 5606 5599 5598 5593 5594 5588 5586 5591 5586 5575 5573 5573 5577 5594 5591 5586 5597 5600 5599 5599 5596 5592 5589 5589 5590 5593 5591 5588 5585 5582 5580
5598 5609 5617 5613 5612 5611 5619 5624 5625 5625 5623 5621 5615 5606 5599 5604 5602 5600 5597 5592 5592 5586 5575 5572 5563 5565 5570 5582 5586 5593 5605 5605 5600 5598 5595 5592 5596 5589 5588 5591 5591 5591 5586 5583 5579